Date,TemperatureHighF,TemperatureAvgF,TemperatureLowF,DewpointHighF,DewpointAvgF,DewpointLowF,HumidityHigh,HumidityAvg,HumidityLow,PressureMaxIn,PressureMinIn,WindSpeedMaxMPH,WindSpeedAvgMPH,GustSpeedMaxMPH,PrecipitationSumIn
2013-3-1,42,33,28,32,27,23,87,78,62,30.43,30.33,7,1,14,0.00
2013-3-2,58,40,26,41,31,21,86,72,52,30.42,30.17,7,1,13,0.00
2013-3-3,58,44,34,42,35,29,82,70,51,30.17,29.77,6,1,10,0.00
2013-3-4,48,38,27,35,25,11,77,60,40,30.33,29.78,11,5,21,0.00
2013-3-5,45,32,22,19,15,12,66,51,30,30.47,30.33,10,4,18,0.00
2013-3-6,49,33,22,29,22,14,76,64,45,30.45,30.12,13,4,20,0.00
2013-3-7,53,37,26,34,27,21,83,69,47,30.18,30.10,13,4,16,0.00
2013-3-8,55,44,33,48,36,27,85,74,58,30.17,29.84,13,6,63,0.00
2013-3-9,53,42,31,50,38,27,90,84,78,30.05,29.71,21,10,44,0.00
2013-3-10,33,27,20,29,19,13,91,72,53,30.23,30.05,22,12,44,0.00
2013-3-11,52,33,18,32,22,12,82,66,40,30.22,30.04,12,4,22,0.00
2013-3-12,49,38,31,30,20,14,80,53,26,30.45,30.21,17,6,34,0.00
2013-3-13,68,45,29,38,24,14,60,47,27,30.45,30.27,14,2,23,0.00
2013-3-14,77,56,39,38,33,30,73,47,22,30.34,30.19,12,4,19,0.00
2013-3-15,82,58,38,39,33,29,73,43,16,30.19,29.90,14,5,29,0.00
2013-3-16,53,42,33,36,30,26,84,64,46,30.21,30.01,17,7,25,0.12
2013-3-17,46,35,30,40,31,27,91,86,75,30.16,29.74,16,5,27,0.04
2013-3-18,53,40,28,33,24,14,92,58,27,30.16,29.94,13,5,23,0.00
2013-3-19,54,39,28,25,18,14,62,44,26,30.44,30.15,16,3,28,0.00
2013-3-20,52,35,19,22,16,10,71,49,28,30.51,30.04,16,5,26,0.00
2013-3-21,51,38,28,29,22,16,81,52,38,30.05,29.84,16,8,26,0.00
2013-3-22,54,39,28,34,29,23,86,70,39,30.10,29.96,12,4,23,0.02
2013-3-23,35,30,25,31,26,18,87,84,74,30.30,30.07,15,4,28,0.14
2013-3-24,35,24,13,25,16,7,80,72,56,30.37,30.24,16,6,25,0.04
2013-3-25,36,24,14,19,14,8,77,66,47,30.46,30.37,15,6,26,0.00
2013-3-26,51,31,13,30,19,6,76,63,42,30.45,30.18,15,4,26,0.00
2013-3-27,60,43,32,39,30,26,80,64,39,30.29,30.17,8,2,16,0.00
2013-3-28,69,49,32,39,32,25,78,55,31,30.31,30.19,15,3,24,0.00
2013-3-29,72,54,39,48,38,29,72,58,34,30.29,30.10,20,5,31,0.00
2013-3-30,69,54,42,46,40,35,84,63,33,30.26,30.10,16,4,23,0.02
2013-3-31,71,50,35,41,34,27,87,60,25,30.26,30.02,20,5,34,0.00